Portland Hillsboro, OR

2:55 PM PST on January 22, 2018 (GMT -0800)
Portland-Hillsboro

Weather History for KHIO - November, 2011

Change the Weather History Date:

Thursday, November 24, 2011

  Actual Average Record
Temperature  
Mean Temperature 41 °F 42 °F  
Max Temperature 45 °F 49 °F 66 °F (1949)
Min Temperature 37 °F 36 °F 9 °F (1985)
Degree Days  
Heating Degree Days 24 23  
Month to date heating degree days 547 478  
Since 1 July heating degree days 1113 1159  
Cooling Degree Days 0 0  
Month to date cooling degree days 0 0  
Year to date cooling degree days 175 198  
Moisture  
Dew Point 39 °F    
Average Humidity 91    
Maximum Humidity 100    
Minimum Humidity 82    
Precipitation  
Precipitation 0.28 in 0.22 in 2.17 in (1960)
Month to date precipitation 4.97 5.04  
Year to date precipitation 27.60 31.73  
Snow  
Snow 0.00 in - - ()
Month to date snowfall 0.0  
Since 1 July snowfall 0.0  
Since 1 September snowfall 0.0  
Snow Depth 0.00 in    
Sea Level Pressure  
Sea Level Pressure 29.84 in    
Wind  
Wind Speed 9 mph (South)    
Max Wind Speed 25 mph    
Max Gust Speed 32 mph    
Visibility 7 miles    
Events Rain    
T = Trace of Precipitation, MM = Missing Value Source: NWS Daily Summary

Daily Weather History Graph

Daily Weather History Graph

Search for Another Location

Airport or City:

Trip Planner

Search our weather history database for the weather conditions in past years. The results will help you decide how hot, cold, wet, or windy it might be!

Date:

Astronomy

Nov. 24, 2011 Rise Set
Actual Time 7:22 AM PST 4:33 PM PST
Civil Twilight 6:49 AM PST 5:06 PM PST
Nautical Twilight 6:13 AM PST 5:43 PM PST
Astronomical Twilight 5:37 AM PST 6:18 PM PST
Moon 6:48 AM PST (11/24) 4:07 PM PST (11/24)
Length of Visible Light 10h 16m
Length of Day
9h 10m
Waning Crescent, 0% of the Moon is Illuminated
Nov 24
Waning Crescent
Nov 24
New
Dec 2
First Quarter
Dec 10
Full
Dec 17
Last Quarter

Hourly Weather History & Observations

Time (PST) Temp. Windchill Dew Point Humidity Pressure Visibility Wind Dir Wind Speed Gust Speed Precip Events Conditions
12:01 AM 41.0 °F - 39.2 °F 93% 29.88 in 2.5 mi Calm Calm - N/A   Overcast
12:09 AM 41.0 °F 39.0 °F 39.2 °F 93% 29.88 in 0.8 mi NW 3.5 mph - N/A   Mist
12:26 AM 39.2 °F 37.0 °F 39.2 °F 100% 29.88 in 1.5 mi WNW 3.5 mph - N/A   Overcast
12:43 AM 39.2 °F 37.0 °F 39.2 °F 100% 29.88 in 2.5 mi WNW 3.5 mph - N/A   Overcast
12:53 AM 39.9 °F 37.8 °F 39.9 °F 100% 29.89 in 1.8 mi WNW 3.5 mph - N/A   Overcast
1:43 AM 39.2 °F - 39.2 °F 100% 29.89 in 2.5 mi Calm Calm - N/A   Overcast
1:53 AM 39.9 °F - 39.9 °F 100% 29.89 in 3.0 mi Calm Calm - N/A   Overcast
2:19 AM 41.0 °F - 39.2 °F 93% 29.88 in 5.0 mi Calm Calm - N/A   Overcast
2:34 AM 41.0 °F - 39.2 °F 93% 29.88 in 7.0 mi Calm Calm - N/A   Overcast
3:06 AM 39.2 °F 37.0 °F 39.2 °F 100% 29.87 in 8.0 mi SE 3.5 mph - N/A   Overcast
3:13 AM 39.2 °F 37.0 °F 39.2 °F 100% 29.87 in 7.0 mi SSE 3.5 mph - N/A   Overcast
3:21 AM 39.2 °F 35.0 °F 39.2 °F 100% 29.87 in 7.0 mi South 5.8 mph - N/A   Overcast
3:36 AM 41.0 °F 35.2 °F 39.2 °F 93% 29.87 in 10.0 mi South 9.2 mph - N/A   Overcast
3:43 AM 41.0 °F 35.8 °F 39.2 °F 93% 29.86 in 10.0 mi South 8.1 mph - N/A   Overcast
3:53 AM 41.0 °F 38.0 °F 39.9 °F 96% 29.87 in 9.0 mi South 4.6 mph - N/A   Overcast
4:53 AM 41.0 °F 35.8 °F 39.9 °F 96% 29.86 in 8.0 mi South 8.1 mph - N/A   Overcast
5:00 AM 41.0 °F 35.8 °F 39.2 °F 93% 29.85 in 9.0 mi SSE 8.1 mph - N/A   Overcast
5:44 AM 41.0 °F 38.0 °F 39.2 °F 93% 29.84 in 10.0 mi SSE 4.6 mph - N/A   Overcast
5:53 AM 41.0 °F 39.0 °F 39.0 °F 93% 29.84 in 10.0 mi SE 3.5 mph - N/A   Overcast
6:10 AM 41.0 °F 37.1 °F 39.2 °F 93% 29.83 in 10.0 mi SE 5.8 mph - N/A   Overcast
6:50 AM 39.2 °F 35.9 °F 37.4 °F 93% 29.83 in 10.0 mi SSE 4.6 mph - N/A   Scattered Clouds
6:53 AM 39.9 °F 35.1 °F 37.9 °F 93% 29.84 in 10.0 mi SSE 6.9 mph - N/A   Scattered Clouds
7:53 AM 41.0 °F 36.4 °F 37.9 °F 89% 29.83 in 10.0 mi SSE 6.9 mph - N/A   Overcast
8:53 AM 42.1 °F 36.6 °F 37.9 °F 85% 29.83 in 10.0 mi SSE 9.2 mph - N/A   Overcast
9:53 AM 42.1 °F 34.9 °F 37.0 °F 82% 29.83 in 10.0 mi South 13.8 mph - N/A   Overcast
10:53 AM 42.1 °F 33.3 °F 37.9 °F 85% 29.81 in 9.0 mi SSE 19.6 mph 27.6 mph 0.00 in Rain Light Rain
11:53 AM 43.0 °F 35.4 °F 39.0 °F 86% 29.76 in 10.0 mi SSE 16.1 mph 23.0 mph 0.02 in Rain Light Rain
12:53 PM 45.0 °F 36.9 °F 39.0 °F 80% 29.73 in 10.0 mi South 20.7 mph 29.9 mph 0.00 in   Overcast
1:17 PM 44.6 °F 36.1 °F 39.2 °F 81% 29.72 in 2.5 mi South 21.9 mph 29.9 mph 0.04 in Rain Heavy Rain
2:53 PM 44.1 °F 36.5 °F 39.9 °F 85% 29.71 in 4.0 mi South 17.3 mph 31.1 mph 0.01 in Rain Light Rain
3:53 PM 44.1 °F 38.6 °F 41.0 °F 89% 29.72 in 4.0 mi South 10.4 mph 20.7 mph 0.00 in Rain Light Rain
4:53 PM 45.0 °F 38.2 °F 42.1 °F 90% 29.73 in 5.0 mi South 15.0 mph 21.9 mph 0.02 in Rain Light Rain
5:53 PM 45.0 °F 40.1 °F 42.1 °F 90% 29.76 in 6.0 mi South 9.2 mph - 0.11 in   Mostly Cloudy
7:53 PM 41.0 °F 37.1 °F 39.9 °F 96% 29.83 in 10.0 mi South 5.8 mph - 0.00 in   Overcast
8:53 PM 45.0 °F 42.6 °F 41.0 °F 86% 29.89 in 10.0 mi West 4.6 mph - 0.04 in Rain Light Rain
9:53 PM 42.1 °F 37.7 °F 39.9 °F 92% 29.92 in 10.0 mi NNE 6.9 mph - 0.00 in   Partly Cloudy
10:53 PM 41.0 °F - 39.9 °F 96% 29.96 in 10.0 mi Calm Calm - 0.01 in Rain Light Rain